Year,Month,Day,Hour,Minute,Value (Times are PST for windgust in km/hr)
2011,07,07,00,00,1.60
2011,07,07,00,01,3.20
2011,07,07,00,02,1.60
2011,07,07,00,05,4.80
2011,07,07,00,06,3.20
2011,07,07,00,07,3.20
2011,07,07,00,08,1.60
2011,07,07,00,12,1.60
2011,07,07,00,18,1.60
2011,07,07,00,24,3.20
2011,07,07,00,25,3.20
2011,07,07,00,26,1.60
2011,07,07,00,38,1.60
2011,07,07,00,39,3.20
2011,07,07,00,40,1.60
2011,07,07,00,41,1.60
2011,07,07,01,35,1.60
2011,07,07,02,52,3.20
2011,07,07,02,53,1.60
2011,07,07,02,54,1.60
2011,07,07,02,55,1.60
2011,07,07,02,57,3.20
2011,07,07,02,58,1.60
2011,07,07,02,59,1.60
2011,07,07,03,00,1.60
2011,07,07,03,03,1.60
2011,07,07,03,04,3.20
2011,07,07,03,05,3.20
2011,07,07,03,06,1.60
2011,07,07,03,07,3.20
2011,07,07,03,08,3.20
2011,07,07,03,09,3.20
2011,07,07,03,10,3.20
2011,07,07,03,11,4.80
2011,07,07,03,12,4.80
2011,07,07,03,13,1.60
2011,07,07,03,14,4.80
2011,07,07,03,15,4.80
2011,07,07,03,16,3.20
2011,07,07,03,17,6.40
2011,07,07,03,18,4.80
2011,07,07,03,19,6.40
2011,07,07,03,20,1.60
2011,07,07,03,21,3.20
2011,07,07,03,22,8.10
2011,07,07,03,23,6.40
2011,07,07,03,24,3.20
2011,07,07,03,25,3.20
2011,07,07,03,26,3.20
2011,07,07,03,27,3.20
2011,07,07,03,28,4.80
2011,07,07,03,29,4.80
2011,07,07,03,30,4.80
2011,07,07,03,31,3.20
2011,07,07,03,32,3.20
2011,07,07,03,33,6.40
2011,07,07,03,34,6.40
2011,07,07,03,35,3.20
2011,07,07,03,36,3.20
2011,07,07,03,37,6.40
2011,07,07,03,38,4.80
2011,07,07,03,39,4.80
2011,07,07,03,40,6.40
2011,07,07,03,41,6.40
2011,07,07,03,42,4.80
2011,07,07,03,43,4.80
2011,07,07,03,44,4.80
2011,07,07,03,45,6.40
2011,07,07,03,46,6.40
2011,07,07,03,47,3.20
2011,07,07,03,48,4.80
2011,07,07,03,49,6.40
2011,07,07,03,50,4.80
2011,07,07,03,51,3.20
2011,07,07,03,52,4.80
2011,07,07,03,53,3.20
2011,07,07,03,54,8.10
2011,07,07,03,55,4.80
2011,07,07,03,56,3.20
2011,07,07,03,57,3.20
2011,07,07,03,58,3.20
2011,07,07,03,59,3.20
2011,07,07,04,00,4.80
2011,07,07,04,01,3.20
2011,07,07,04,02,3.20
2011,07,07,04,03,1.60
2011,07,07,04,04,3.20
2011,07,07,04,05,1.60
2011,07,07,04,06,3.20
2011,07,07,04,07,3.20
2011,07,07,04,08,1.60
2011,07,07,04,09,6.40
2011,07,07,04,10,6.40
2011,07,07,04,11,6.40
2011,07,07,04,12,8.10
2011,07,07,04,13,6.40
2011,07,07,04,14,4.80
2011,07,07,04,15,4.80
2011,07,07,04,16,4.80
2011,07,07,04,17,3.20
2011,07,07,04,18,4.80
2011,07,07,04,19,3.20
2011,07,07,04,20,4.80
2011,07,07,04,21,3.20
2011,07,07,04,22,1.60
2011,07,07,04,23,3.20
2011,07,07,04,24,3.20
2011,07,07,04,25,4.80
2011,07,07,04,26,4.80
2011,07,07,04,27,4.80
2011,07,07,04,28,3.20
2011,07,07,04,29,3.20
2011,07,07,04,30,4.80
2011,07,07,04,31,4.80
2011,07,07,04,32,4.80
2011,07,07,04,33,1.60
2011,07,07,04,34,3.20
2011,07,07,04,35,1.60
2011,07,07,04,36,4.80
2011,07,07,04,37,4.80
2011,07,07,04,38,3.20
2011,07,07,04,39,1.60
2011,07,07,04,40,1.60
2011,07,07,04,41,3.20
2011,07,07,04,42,3.20
2011,07,07,04,43,4.80
2011,07,07,04,44,4.80
2011,07,07,04,45,4.80
2011,07,07,04,46,3.20
2011,07,07,04,47,1.60
2011,07,07,04,48,1.60
2011,07,07,04,49,6.40
2011,07,07,04,50,6.40
2011,07,07,04,51,4.80
2011,07,07,04,52,6.40
2011,07,07,04,53,4.80
2011,07,07,04,54,3.20
2011,07,07,04,55,4.80
2011,07,07,04,57,3.20
2011,07,07,04,58,1.60
2011,07,07,04,59,4.80
2011,07,07,05,00,3.20
2011,07,07,05,01,3.20
2011,07,07,05,02,6.40
2011,07,07,05,03,4.80
2011,07,07,05,04,1.60
2011,07,07,05,05,1.60
2011,07,07,05,06,4.80
2011,07,07,05,07,8.10
2011,07,07,05,08,4.80
2011,07,07,05,09,3.20
2011,07,07,05,10,4.80
2011,07,07,05,11,6.40
2011,07,07,05,12,4.80
2011,07,07,05,13,6.40
2011,07,07,05,14,6.40
2011,07,07,05,15,4.80
2011,07,07,05,16,6.40
2011,07,07,05,17,4.80
2011,07,07,05,18,4.80
2011,07,07,05,19,3.20
2011,07,07,05,20,4.80
2011,07,07,05,21,4.80
2011,07,07,05,22,11.30
2011,07,07,05,23,8.10
2011,07,07,05,24,6.40
2011,07,07,05,25,4.80
2011,07,07,05,26,4.80
2011,07,07,05,27,6.40
2011,07,07,05,28,9.60
2011,07,07,05,29,8.10
2011,07,07,05,30,6.40
2011,07,07,05,31,6.40
2011,07,07,05,32,8.10
2011,07,07,05,33,9.60
2011,07,07,05,34,6.40
2011,07,07,05,35,8.10
2011,07,07,05,36,4.80
2011,07,07,05,37,8.10
2011,07,07,05,38,8.10
2011,07,07,05,39,6.40
2011,07,07,05,40,4.80
2011,07,07,05,41,3.20
2011,07,07,05,43,3.20
2011,07,07,05,44,4.80
2011,07,07,05,45,8.10
2011,07,07,05,46,4.80
2011,07,07,05,48,4.80
2011,07,07,05,49,6.40
2011,07,07,05,50,4.80
2011,07,07,05,51,4.80
2011,07,07,05,52,4.80
2011,07,07,05,53,3.20
2011,07,07,05,54,3.20
2011,07,07,05,55,3.20
2011,07,07,05,56,4.80
2011,07,07,05,57,4.80
2011,07,07,05,58,6.40
2011,07,07,05,59,8.10
2011,07,07,06,00,8.10
2011,07,07,06,01,11.30
2011,07,07,06,02,8.10
2011,07,07,06,03,8.10
2011,07,07,06,04,6.40
2011,07,07,06,05,4.80
2011,07,07,06,06,4.80
2011,07,07,06,07,6.40
2011,07,07,06,08,6.40
2011,07,07,06,09,3.20
2011,07,07,06,10,4.80
2011,07,07,06,11,8.10
2011,07,07,06,12,8.10
2011,07,07,06,13,4.80
2011,07,07,06,14,6.40
2011,07,07,06,15,4.80
2011,07,07,06,16,1.60
2011,07,07,06,17,1.60
2011,07,07,06,19,1.60
2011,07,07,06,20,3.20
2011,07,07,06,21,3.20
2011,07,07,06,22,3.20
2011,07,07,06,23,4.80
2011,07,07,06,24,8.10
2011,07,07,06,25,6.40
2011,07,07,06,26,6.40
2011,07,07,06,27,8.10
2011,07,07,06,28,9.60
2011,07,07,06,29,6.40
2011,07,07,06,30,8.10
2011,07,07,06,31,9.60
2011,07,07,06,32,6.40
2011,07,07,06,33,6.40
2011,07,07,06,34,9.60
2011,07,07,06,35,8.10
2011,07,07,06,36,8.10
2011,07,07,06,37,9.60
2011,07,07,06,38,9.60
2011,07,07,06,39,8.10
2011,07,07,06,40,6.40
2011,07,07,06,41,4.80
2011,07,07,06,42,8.10
2011,07,07,06,43,9.60
2011,07,07,06,44,9.60
2011,07,07,06,45,8.10
2011,07,07,06,46,9.60
2011,07,07,06,47,6.40
2011,07,07,06,48,8.10
2011,07,07,06,49,4.80
2011,07,07,06,50,4.80
2011,07,07,06,51,3.20
2011,07,07,06,52,3.20
2011,07,07,06,54,1.60
2011,07,07,06,55,3.20
2011,07,07,06,56,8.10
2011,07,07,06,57,8.10
2011,07,07,06,58,3.20
2011,07,07,06,59,3.20
2011,07,07,07,00,4.80
2011,07,07,07,01,6.40
2011,07,07,07,02,6.40
2011,07,07,07,03,6.40
2011,07,07,07,04,4.80
2011,07,07,07,05,4.80
2011,07,07,07,06,8.10
2011,07,07,07,07,4.80
2011,07,07,07,08,4.80
2011,07,07,07,09,6.40
2011,07,07,07,10,9.60
2011,07,07,07,11,4.80
2011,07,07,07,12,6.40
2011,07,07,07,13,6.40
2011,07,07,07,14,6.40
2011,07,07,07,15,6.40
2011,07,07,07,16,4.80
2011,07,07,07,17,3.20
2011,07,07,07,18,3.20
2011,07,07,07,19,1.60
2011,07,07,07,20,3.20
2011,07,07,07,21,4.80
2011,07,07,07,22,8.10
2011,07,07,07,23,6.40
2011,07,07,07,24,6.40
2011,07,07,07,25,4.80
2011,07,07,07,26,6.40
2011,07,07,07,27,8.10
2011,07,07,07,28,4.80
2011,07,07,07,29,8.10
2011,07,07,07,30,4.80
2011,07,07,07,31,8.10
2011,07,07,07,32,6.40
2011,07,07,07,33,4.80
2011,07,07,07,34,1.60
2011,07,07,07,35,3.20
2011,07,07,07,36,8.10
2011,07,07,07,37,6.40
2011,07,07,07,38,6.40
2011,07,07,07,39,4.80
2011,07,07,07,40,6.40
2011,07,07,07,41,6.40
2011,07,07,07,42,9.60
2011,07,07,07,43,9.60
2011,07,07,07,44,6.40
2011,07,07,07,45,9.60
2011,07,07,07,46,8.10
2011,07,07,07,47,8.10
2011,07,07,07,48,6.40
2011,07,07,07,49,6.40
2011,07,07,07,50,4.80
2011,07,07,07,51,6.40
2011,07,07,07,52,4.80
2011,07,07,07,53,4.80
2011,07,07,07,54,6.40
2011,07,07,07,55,6.40
2011,07,07,07,56,4.80
2011,07,07,07,57,6.40
2011,07,07,07,58,4.80
2011,07,07,07,59,3.20
2011,07,07,08,00,3.20
2011,07,07,08,01,4.80
2011,07,07,08,02,4.80
2011,07,07,08,03,6.40
2011,07,07,08,04,4.80
2011,07,07,08,05,6.40
2011,07,07,08,06,4.80
2011,07,07,08,07,4.80
2011,07,07,08,08,4.80
2011,07,07,08,09,4.80
2011,07,07,08,10,6.40
2011,07,07,08,11,4.80
2011,07,07,08,12,4.80
2011,07,07,08,13,6.40
2011,07,07,08,14,6.40
2011,07,07,08,15,8.10
2011,07,07,08,16,4.80
2011,07,07,08,17,3.20
2011,07,07,08,18,4.80
2011,07,07,08,19,3.20
2011,07,07,08,20,6.40
2011,07,07,08,21,4.80
2011,07,07,08,22,4.80
2011,07,07,08,23,4.80
2011,07,07,08,24,4.80
2011,07,07,08,25,4.80
2011,07,07,08,26,3.20
2011,07,07,08,27,4.80
2011,07,07,08,28,3.20
2011,07,07,08,29,3.20
2011,07,07,08,30,3.20
2011,07,07,08,31,3.20
2011,07,07,08,32,3.20
2011,07,07,08,33,4.80
2011,07,07,08,34,6.40
2011,07,07,08,35,8.10
2011,07,07,08,36,4.80
2011,07,07,08,37,8.10
2011,07,07,08,38,4.80
2011,07,07,08,39,4.80
2011,07,07,08,40,4.80
2011,07,07,08,41,3.20
2011,07,07,08,42,8.10
2011,07,07,08,43,6.40
2011,07,07,08,44,6.40
2011,07,07,08,45,4.80
2011,07,07,08,46,4.80
2011,07,07,08,47,3.20
2011,07,07,08,48,3.20
2011,07,07,08,49,6.40
2011,07,07,08,50,4.80
2011,07,07,08,51,4.80
2011,07,07,08,52,4.80
2011,07,07,08,53,4.80
2011,07,07,08,54,3.20
2011,07,07,08,55,9.60
2011,07,07,08,56,9.60
2011,07,07,08,57,8.10
2011,07,07,08,58,12.90
2011,07,07,08,59,11.30
2011,07,07,09,00,4.80
2011,07,07,09,01,6.40
2011,07,07,09,02,6.40
2011,07,07,09,03,3.20
2011,07,07,09,04,8.10
2011,07,07,09,05,4.80
2011,07,07,09,06,6.40
2011,07,07,09,07,8.10
2011,07,07,09,08,4.80
2011,07,07,09,09,6.40
2011,07,07,09,10,8.10
2011,07,07,09,11,6.40
2011,07,07,09,12,8.10
2011,07,07,09,13,8.10
2011,07,07,09,14,3.20
2011,07,07,09,15,4.80
2011,07,07,09,16,3.20
2011,07,07,09,17,4.80
2011,07,07,09,18,6.40
2011,07,07,09,19,6.40
2011,07,07,09,20,9.60
2011,07,07,09,21,8.10
2011,07,07,09,22,11.30
2011,07,07,09,23,9.60
2011,07,07,09,24,9.60
2011,07,07,09,25,8.10
2011,07,07,09,26,9.60
2011,07,07,09,27,8.10
2011,07,07,09,28,9.60
2011,07,07,09,29,11.30
2011,07,07,09,30,6.40
2011,07,07,09,31,4.80
2011,07,07,09,32,6.40
2011,07,07,09,33,6.40
2011,07,07,09,34,9.60
2011,07,07,09,35,6.40
2011,07,07,09,36,6.40
2011,07,07,09,37,8.10
2011,07,07,09,38,9.60
2011,07,07,09,39,6.40
2011,07,07,09,40,8.10
2011,07,07,09,41,9.60
2011,07,07,09,42,9.60
2011,07,07,09,43,9.60
2011,07,07,09,44,11.30
2011,07,07,09,45,11.30
2011,07,07,09,46,9.60
2011,07,07,09,47,6.40
2011,07,07,09,48,8.10
2011,07,07,09,49,11.30
2011,07,07,09,50,12.90
2011,07,07,09,51,11.30
2011,07,07,09,52,12.90
2011,07,07,09,53,16.10
2011,07,07,09,54,14.50
2011,07,07,09,55,11.30
2011,07,07,09,56,8.10
2011,07,07,09,57,6.40
2011,07,07,09,58,14.50
2011,07,07,09,59,14.50
2011,07,07,10,00,16.10
2011,07,07,10,01,14.50
2011,07,07,10,02,14.50
2011,07,07,10,03,11.30
2011,07,07,10,04,14.50
2011,07,07,10,05,14.50
2011,07,07,10,06,9.60
2011,07,07,10,07,9.60
2011,07,07,10,08,9.60
2011,07,07,10,09,9.60
2011,07,07,10,10,4.80
2011,07,07,10,11,8.10
2011,07,07,10,12,4.80
2011,07,07,10,13,4.80
2011,07,07,10,14,6.40
2011,07,07,10,15,8.10
2011,07,07,10,16,12.90
2011,07,07,10,17,9.60
2011,07,07,10,18,11.30
2011,07,07,10,19,11.30
2011,07,07,10,20,9.60
2011,07,07,10,21,9.60
2011,07,07,10,22,11.30
2011,07,07,10,23,14.50
2011,07,07,10,24,11.30
2011,07,07,10,25,8.10
2011,07,07,10,26,16.10
2011,07,07,10,27,16.10
2011,07,07,10,28,11.30
2011,07,07,10,29,14.50
2011,07,07,10,30,14.50
2011,07,07,10,31,11.30
2011,07,07,10,32,14.50
2011,07,07,10,33,14.50
2011,07,07,10,34,9.60
2011,07,07,10,35,16.10
2011,07,07,10,36,8.10
2011,07,07,10,37,9.60
2011,07,07,10,38,12.90
2011,07,07,10,39,11.30
2011,07,07,10,40,12.90
2011,07,07,10,41,11.30
2011,07,07,10,42,11.30
2011,07,07,10,43,11.30
2011,07,07,10,44,9.60
2011,07,07,10,45,9.60
2011,07,07,10,46,8.10
2011,07,07,10,47,9.60
2011,07,07,10,48,6.40
2011,07,07,10,49,8.10
2011,07,07,10,50,4.80
2011,07,07,10,51,9.60
2011,07,07,10,52,9.60
2011,07,07,10,53,8.10
2011,07,07,10,54,11.30
2011,07,07,10,55,8.10
2011,07,07,10,56,8.10
2011,07,07,10,57,6.40
2011,07,07,10,58,11.30
2011,07,07,10,59,8.10
2011,07,07,11,00,9.60
2011,07,07,11,01,9.60
2011,07,07,11,02,9.60
2011,07,07,11,03,14.50
2011,07,07,11,04,11.30
2011,07,07,11,05,11.30
2011,07,07,11,06,11.30
2011,07,07,11,07,11.30
2011,07,07,11,08,8.10
2011,07,07,11,09,11.30
2011,07,07,11,10,11.30
2011,07,07,11,11,11.30
2011,07,07,11,12,8.10
2011,07,07,11,13,9.60
2011,07,07,11,14,11.30
2011,07,07,11,15,9.60
2011,07,07,11,16,8.10
2011,07,07,11,17,11.30
2011,07,07,11,18,17.70
2011,07,07,11,19,9.60
2011,07,07,11,20,14.50
2011,07,07,11,21,6.40
2011,07,07,11,22,11.30
2011,07,07,11,23,8.10
2011,07,07,11,24,11.30
2011,07,07,11,25,11.30
2011,07,07,11,26,11.30
2011,07,07,11,27,11.30
2011,07,07,11,28,12.90
2011,07,07,11,29,9.60
2011,07,07,11,30,16.10
2011,07,07,11,31,11.30
2011,07,07,11,32,4.80
2011,07,07,11,33,6.40
2011,07,07,11,34,6.40
2011,07,07,11,35,14.50
2011,07,07,11,36,11.30
2011,07,07,11,37,11.30
2011,07,07,11,38,8.10
2011,07,07,11,39,14.50
2011,07,07,11,40,9.60
2011,07,07,11,41,8.10
2011,07,07,11,42,11.30
2011,07,07,11,43,9.60
2011,07,07,11,44,16.10
2011,07,07,11,45,8.10
2011,07,07,11,46,4.80
2011,07,07,11,47,6.40
2011,07,07,11,48,6.40
2011,07,07,11,49,8.10
2011,07,07,11,50,3.20
2011,07,07,11,51,4.80
2011,07,07,11,52,6.40
2011,07,07,11,53,9.60
2011,07,07,11,54,8.10
2011,07,07,11,55,6.40
2011,07,07,11,56,6.40
2011,07,07,11,57,8.10
2011,07,07,11,58,6.40
2011,07,07,11,59,8.10
2011,07,07,12,00,9.60
2011,07,07,12,01,11.30
2011,07,07,12,02,16.10
2011,07,07,12,03,14.50
2011,07,07,12,04,9.60
2011,07,07,12,05,16.10
2011,07,07,12,06,14.50
2011,07,07,12,07,12.90
2011,07,07,12,08,14.50
2011,07,07,12,09,11.30
2011,07,07,12,10,8.10
2011,07,07,12,11,8.10
2011,07,07,12,12,9.60
2011,07,07,12,13,8.10
2011,07,07,12,14,6.40
2011,07,07,12,15,8.10
2011,07,07,12,16,6.40
2011,07,07,12,17,9.60
2011,07,07,12,18,6.40
2011,07,07,12,19,8.10
2011,07,07,12,20,4.80
2011,07,07,12,21,6.40
2011,07,07,12,22,6.40
2011,07,07,12,23,9.60
2011,07,07,12,24,11.30
2011,07,07,12,25,6.40
2011,07,07,12,26,9.60
2011,07,07,12,27,9.60
2011,07,07,12,28,8.10
2011,07,07,12,29,9.60
2011,07,07,12,30,9.60
2011,07,07,12,31,6.40
2011,07,07,12,32,8.10
2011,07,07,12,33,6.40
2011,07,07,12,34,6.40
2011,07,07,12,35,6.40
2011,07,07,12,36,8.10
2011,07,07,12,37,8.10
2011,07,07,12,38,6.40
2011,07,07,12,39,4.80
2011,07,07,12,40,6.40
2011,07,07,12,41,8.10
2011,07,07,12,42,4.80
2011,07,07,12,43,6.40
2011,07,07,12,44,6.40
2011,07,07,12,45,8.10
2011,07,07,12,46,8.10
2011,07,07,12,47,9.60
2011,07,07,12,48,8.10
2011,07,07,12,49,8.10
2011,07,07,12,50,6.40
2011,07,07,12,51,4.80
2011,07,07,12,52,6.40
2011,07,07,12,53,6.40
2011,07,07,12,54,6.40
2011,07,07,12,55,4.80
2011,07,07,12,56,9.60
2011,07,07,12,57,9.60
2011,07,07,12,58,6.40
2011,07,07,12,59,6.40
2011,07,07,13,00,6.40
2011,07,07,13,01,4.80
2011,07,07,13,02,6.40
2011,07,07,13,03,6.40
2011,07,07,13,04,4.80
2011,07,07,13,05,8.10
2011,07,07,13,06,6.40
2011,07,07,13,07,6.40
2011,07,07,13,08,6.40
2011,07,07,13,09,11.30
2011,07,07,13,10,12.90
2011,07,07,13,11,8.10
2011,07,07,13,12,8.10
2011,07,07,13,13,4.80
2011,07,07,13,14,3.20
2011,07,07,13,15,1.60
2011,07,07,13,16,3.20
2011,07,07,13,17,1.60
2011,07,07,13,18,3.20
2011,07,07,13,19,4.80
2011,07,07,13,20,6.40
2011,07,07,13,21,6.40
2011,07,07,13,22,4.80
2011,07,07,13,23,3.20
2011,07,07,13,24,4.80
2011,07,07,13,25,3.20
2011,07,07,13,26,6.40
2011,07,07,13,27,4.80
2011,07,07,13,28,8.10
2011,07,07,13,29,6.40
2011,07,07,13,30,6.40
2011,07,07,13,31,6.40
2011,07,07,13,32,6.40
2011,07,07,13,33,8.10
2011,07,07,13,34,4.80
2011,07,07,13,35,4.80
2011,07,07,13,36,3.20
2011,07,07,13,37,3.20
2011,07,07,13,38,4.80
2011,07,07,13,39,4.80
2011,07,07,13,40,8.10
2011,07,07,13,41,6.40
2011,07,07,13,42,6.40
2011,07,07,13,43,4.80
2011,07,07,13,44,3.20
2011,07,07,13,45,4.80
2011,07,07,13,46,3.20
2011,07,07,13,47,3.20
2011,07,07,13,48,3.20
2011,07,07,13,49,4.80
2011,07,07,13,50,6.40
2011,07,07,13,51,4.80
2011,07,07,13,52,3.20
2011,07,07,13,53,3.20
2011,07,07,13,54,3.20
2011,07,07,13,55,11.30
2011,07,07,13,56,19.30
2011,07,07,13,57,14.50
2011,07,07,13,58,14.50
2011,07,07,13,59,11.30
2011,07,07,14,00,3.20
2011,07,07,14,01,16.10
2011,07,07,14,02,16.10
2011,07,07,14,03,9.60
2011,07,07,14,04,17.70
2011,07,07,14,05,14.50
2011,07,07,14,06,17.70
2011,07,07,14,07,14.50
2011,07,07,14,08,11.30
2011,07,07,14,09,9.60
2011,07,07,14,10,11.30
2011,07,07,14,11,11.30
2011,07,07,14,12,11.30
2011,07,07,14,13,11.30
2011,07,07,14,14,25.70
2011,07,07,14,15,25.70
2011,07,07,14,16,14.50
2011,07,07,14,17,8.10
2011,07,07,14,18,9.60
2011,07,07,14,19,17.70
2011,07,07,14,20,22.50
2011,07,07,14,21,29.00
2011,07,07,14,22,16.10
2011,07,07,14,23,9.60
2011,07,07,14,24,33.80
2011,07,07,14,25,17.70
2011,07,07,14,26,17.70
2011,07,07,14,27,22.50
2011,07,07,14,28,19.30
2011,07,07,14,29,8.10
2011,07,07,14,30,9.60
2011,07,07,14,31,20.90
2011,07,07,14,32,22.50
2011,07,07,14,33,27.40
2011,07,07,14,34,19.30
2011,07,07,14,35,20.90
2011,07,07,14,36,12.90
2011,07,07,14,37,19.30
2011,07,07,14,38,16.10
2011,07,07,14,39,22.50
2011,07,07,14,40,20.90
2011,07,07,14,41,22.50
2011,07,07,14,42,9.60
2011,07,07,14,43,20.90
2011,07,07,14,44,17.70
2011,07,07,14,45,17.70
2011,07,07,14,46,22.50
2011,07,07,14,47,17.70
2011,07,07,14,48,24.20
2011,07,07,14,49,24.20
2011,07,07,14,50,17.70
2011,07,07,14,51,11.30
2011,07,07,14,52,24.20
2011,07,07,14,53,24.20
2011,07,07,14,54,20.90
2011,07,07,14,55,27.40
2011,07,07,14,56,24.20
2011,07,07,14,57,24.20
2011,07,07,14,58,29.00
2011,07,07,14,59,29.00
2011,07,07,15,00,19.30
2011,07,07,15,01,22.50
2011,07,07,15,02,22.50
2011,07,07,15,03,20.90
2011,07,07,15,04,24.20
2011,07,07,15,05,17.70
2011,07,07,15,06,25.70
2011,07,07,15,07,19.30
2011,07,07,15,08,29.00
2011,07,07,15,09,22.50
2011,07,07,15,10,17.70
2011,07,07,15,11,22.50
2011,07,07,15,12,19.30
2011,07,07,15,13,22.50
2011,07,07,15,14,29.00
2011,07,07,15,15,35.40
2011,07,07,15,16,27.40
2011,07,07,15,17,27.40
2011,07,07,15,18,9.60
2011,07,07,15,19,16.10
2011,07,07,15,20,27.40
2011,07,07,15,21,17.70
2011,07,07,15,22,16.10
2011,07,07,15,23,16.10
2011,07,07,15,24,16.10
2011,07,07,15,25,17.70
2011,07,07,15,26,17.70
2011,07,07,15,27,14.50
2011,07,07,15,28,9.60
2011,07,07,15,29,4.80
2011,07,07,15,30,8.10
2011,07,07,15,31,9.60
2011,07,07,15,32,8.10
2011,07,07,15,33,14.50
2011,07,07,15,34,6.40
2011,07,07,15,35,17.70
2011,07,07,15,36,8.10
2011,07,07,15,37,9.60
2011,07,07,15,38,14.50
2011,07,07,15,39,17.70
2011,07,07,15,40,19.30
2011,07,07,15,41,9.60
2011,07,07,15,42,30.60
2011,07,07,15,43,25.70
2011,07,07,15,44,14.50
2011,07,07,15,45,11.30
2011,07,07,15,46,17.70
2011,07,07,15,47,14.50
2011,07,07,15,48,22.50
2011,07,07,15,49,29.00
2011,07,07,15,50,25.70
2011,07,07,15,51,25.70
2011,07,07,15,52,30.60
2011,07,07,15,53,19.30
2011,07,07,15,54,22.50
2011,07,07,15,55,25.70
2011,07,07,15,56,20.90
2011,07,07,15,57,19.30
2011,07,07,15,58,17.70
2011,07,07,15,59,14.50
2011,07,07,16,00,20.90
2011,07,07,16,01,29.00
2011,07,07,16,02,22.50
2011,07,07,16,03,35.40
2011,07,07,16,04,27.40
2011,07,07,16,05,27.40
2011,07,07,16,06,24.20
2011,07,07,16,07,37.00
2011,07,07,16,08,27.40
2011,07,07,16,09,24.20
2011,07,07,16,10,32.20
2011,07,07,16,11,37.00
2011,07,07,16,12,27.40
2011,07,07,16,13,24.20
2011,07,07,16,14,25.70
2011,07,07,16,15,22.50
2011,07,07,16,16,22.50
2011,07,07,16,17,43.50
2011,07,07,16,18,33.80
2011,07,07,16,19,27.40
2011,07,07,16,20,33.80
2011,07,07,16,21,41.80
2011,07,07,16,22,41.80
2011,07,07,16,23,30.60
2011,07,07,16,24,30.60
2011,07,07,16,25,30.60
2011,07,07,16,26,35.40
2011,07,07,16,27,33.80
2011,07,07,16,28,33.80
2011,07,07,16,29,29.00
2011,07,07,16,30,33.80
2011,07,07,16,31,33.80
2011,07,07,16,32,40.20
2011,07,07,16,33,40.20
2011,07,07,16,34,40.20
2011,07,07,16,35,32.20
2011,07,07,16,36,41.80
2011,07,07,16,37,35.40
2011,07,07,16,38,37.00
2011,07,07,16,39,33.80
2011,07,07,16,40,40.20
2011,07,07,16,41,41.80
2011,07,07,16,42,32.20
2011,07,07,16,43,30.60
2011,07,07,16,44,24.20
2011,07,07,16,45,27.40
2011,07,07,16,46,25.70
2011,07,07,16,47,43.50
2011,07,07,16,48,30.60
2011,07,07,16,49,27.40
2011,07,07,16,50,24.20
2011,07,07,16,51,40.20
2011,07,07,16,52,32.20
2011,07,07,16,53,25.70
2011,07,07,16,54,29.00
2011,07,07,16,55,38.60
2011,07,07,16,56,27.40
2011,07,07,16,57,20.90
2011,07,07,16,58,20.90
2011,07,07,16,59,20.90
2011,07,07,17,00,19.30
2011,07,07,17,01,30.60
2011,07,07,17,02,25.70
2011,07,07,17,03,25.70
2011,07,07,17,04,29.00
2011,07,07,17,05,24.20
2011,07,07,17,06,25.70
2011,07,07,17,07,20.90
2011,07,07,17,08,32.20
2011,07,07,17,09,19.30
2011,07,07,17,10,16.10
2011,07,07,17,11,16.10
2011,07,07,17,12,32.20
2011,07,07,17,13,33.80
2011,07,07,17,14,29.00
2011,07,07,17,15,30.60
2011,07,07,17,16,32.20
2011,07,07,17,17,33.80
2011,07,07,17,18,32.20
2011,07,07,17,19,37.00
2011,07,07,17,20,30.60
2011,07,07,17,21,38.60
2011,07,07,17,22,32.20
2011,07,07,17,23,45.10
2011,07,07,17,24,40.20
2011,07,07,17,25,27.40
2011,07,07,17,26,30.60
2011,07,07,17,27,30.60
2011,07,07,17,28,38.60
2011,07,07,17,29,35.40
2011,07,07,17,30,37.00
2011,07,07,17,31,29.00
2011,07,07,17,32,22.50
2011,07,07,17,33,25.70
2011,07,07,17,34,19.30
2011,07,07,17,35,27.40
2011,07,07,17,36,30.60
2011,07,07,17,37,20.90
2011,07,07,17,38,27.40
2011,07,07,17,39,29.00
2011,07,07,17,40,30.60
2011,07,07,17,41,22.50
2011,07,07,17,42,17.70
2011,07,07,17,43,37.00
2011,07,07,17,44,24.20
2011,07,07,17,45,22.50
2011,07,07,17,46,22.50
2011,07,07,17,47,24.20
2011,07,07,17,48,30.60
2011,07,07,17,49,32.20
2011,07,07,17,50,37.00
2011,07,07,17,51,41.80
2011,07,07,17,52,33.80
2011,07,07,17,53,27.40
2011,07,07,17,54,22.50
2011,07,07,17,55,27.40
2011,07,07,17,56,37.00
2011,07,07,17,57,33.80
2011,07,07,17,58,35.40
2011,07,07,17,59,24.20
2011,07,07,18,00,30.60
2011,07,07,18,01,35.40
2011,07,07,18,02,30.60
2011,07,07,18,03,27.40
2011,07,07,18,04,22.50
2011,07,07,18,05,27.40
2011,07,07,18,06,38.60
2011,07,07,18,07,38.60
2011,07,07,18,08,29.00
2011,07,07,18,09,30.60
2011,07,07,18,10,30.60
2011,07,07,18,11,35.40
2011,07,07,18,12,32.20
2011,07,07,18,13,25.70
2011,07,07,18,14,17.70
2011,07,07,18,15,35.40
2011,07,07,18,16,33.80
2011,07,07,18,17,30.60
2011,07,07,18,18,32.20
2011,07,07,18,19,27.40
2011,07,07,18,20,27.40
2011,07,07,18,21,20.90
2011,07,07,18,22,27.40
2011,07,07,18,23,29.00
2011,07,07,18,24,22.50
2011,07,07,18,25,22.50
2011,07,07,18,26,24.20
2011,07,07,18,27,27.40
2011,07,07,18,28,37.00
2011,07,07,18,29,35.40
2011,07,07,18,30,27.40
2011,07,07,18,31,25.70
2011,07,07,18,32,22.50
2011,07,07,18,33,19.30
2011,07,07,18,34,27.40
2011,07,07,18,35,33.80
2011,07,07,18,36,35.40
2011,07,07,18,37,27.40
2011,07,07,18,38,27.40
2011,07,07,18,39,19.30
2011,07,07,18,40,14.50
2011,07,07,18,41,22.50
2011,07,07,18,42,24.20
2011,07,07,18,43,27.40
2011,07,07,18,44,20.90
2011,07,07,18,45,22.50
2011,07,07,18,46,24.20
2011,07,07,18,47,25.70
2011,07,07,18,48,24.20
2011,07,07,18,49,24.20
2011,07,07,18,50,24.20
2011,07,07,18,51,25.70
2011,07,07,18,52,25.70
2011,07,07,18,53,29.00
2011,07,07,18,54,22.50
2011,07,07,18,55,30.60
2011,07,07,18,56,25.70
2011,07,07,18,57,29.00
2011,07,07,18,58,32.20
2011,07,07,18,59,30.60
2011,07,07,19,00,32.20
2011,07,07,19,01,25.70
2011,07,07,19,02,19.30
2011,07,07,19,03,20.90
2011,07,07,19,04,22.50
2011,07,07,19,05,27.40
2011,07,07,19,06,25.70
2011,07,07,19,07,30.60
2011,07,07,19,08,20.90
2011,07,07,19,09,24.20
2011,07,07,19,10,40.20
2011,07,07,19,11,30.60
2011,07,07,19,12,33.80
2011,07,07,19,13,29.00
2011,07,07,19,14,30.60
2011,07,07,19,15,27.40
2011,07,07,19,16,25.70
2011,07,07,19,17,27.40
2011,07,07,19,18,32.20
2011,07,07,19,19,30.60
2011,07,07,19,20,35.40
2011,07,07,19,21,25.70
2011,07,07,19,22,38.60
2011,07,07,19,23,30.60
2011,07,07,19,24,29.00
2011,07,07,19,25,27.40
2011,07,07,19,26,32.20
2011,07,07,19,27,32.20
2011,07,07,19,28,29.00
2011,07,07,19,29,25.70
2011,07,07,19,30,37.00
2011,07,07,19,31,37.00
2011,07,07,19,32,29.00
2011,07,07,19,33,33.80
2011,07,07,19,34,37.00
2011,07,07,19,35,29.00
2011,07,07,19,36,37.00
2011,07,07,19,37,38.60
2011,07,07,19,38,29.00
2011,07,07,19,39,40.20
2011,07,07,19,40,27.40
2011,07,07,19,41,33.80
2011,07,07,19,42,29.00
2011,07,07,19,43,22.50
2011,07,07,19,44,33.80
2011,07,07,19,45,35.40
2011,07,07,19,46,38.60
2011,07,07,19,47,35.40
2011,07,07,19,48,37.00
2011,07,07,19,49,32.20
2011,07,07,19,50,41.80
2011,07,07,19,51,37.00
2011,07,07,19,52,37.00
2011,07,07,19,53,29.00
2011,07,07,19,54,45.10
2011,07,07,19,55,43.50
2011,07,07,19,56,48.30
2011,07,07,19,57,35.40
2011,07,07,19,58,33.80
2011,07,07,19,59,43.50
2011,07,07,20,00,37.00
2011,07,07,20,01,46.70
2011,07,07,20,02,38.60
2011,07,07,20,03,41.80
2011,07,07,20,04,38.60
2011,07,07,20,05,32.20
2011,07,07,20,06,30.60
2011,07,07,20,07,37.00
2011,07,07,20,08,37.00
2011,07,07,20,09,32.20
2011,07,07,20,10,41.80
2011,07,07,20,11,33.80
2011,07,07,20,12,30.60
2011,07,07,20,13,40.20
2011,07,07,20,14,41.80
2011,07,07,20,15,53.10
2011,07,07,20,16,45.10
2011,07,07,20,17,46.70
2011,07,07,20,18,48.30
2011,07,07,20,19,35.40
2011,07,07,20,20,38.60
2011,07,07,20,21,38.60
2011,07,07,20,22,51.50
2011,07,07,20,23,48.30
2011,07,07,20,24,45.10
2011,07,07,20,25,45.10
2011,07,07,20,26,49.90
2011,07,07,20,27,35.40
2011,07,07,20,28,49.90